Location: Arcusa
(42.3167°N, 0.0833°W)
Time: 05:26:51
(UTC+00:00)

COSMOS 2455 - Pass Details

Date: 25 January 2020
Orbit: 902 x 907 km, 67.1° (Epoch: 26 February)

Event Time Altitude Azimuth Distance (km) Brightness Sun altitude
Exits shadow 05:01:25 58° 317° (NW) 1,052 2.9 -25.7°
Drops below altitude 10° 05:07:03 10° 23° (NNE) 2,596 5.4 -24.6°
Sets 05:09:37 0° 28° (NNE) 3,541 6.2 -24.2°
